User: anonymous   Login
Location: Newark
(46.2358°N, 112.1211°W)
Time: 14:03:15
(UTC+00:00)
Language:

AAUSAT CUBESAT 2 - Orbit

View from above orbital plane
View from above orbital plane
View from above satellite
View from above satellite

Ground track
Ground track

The orbit data is extracted from the following two-line orbital elements,

1 32788U 08021F   20191.73951217  .00000247  00000-0  27509-4 0  9997
2 32788  97.4905 195.2476 0011287 349.1353  10.9623 14.95084783662740
Epoch (UTC): 09 July 2020 17:44:53
Eccentricity: 0.0011287
inclination: 97.4905°
perigee height: 574 km
apogee height: 590 km
right ascension of ascending node: 195.2476°
argument of perigee: 349.1353°
revolutions per day: 14.95084783
mean anomaly at epoch: 10.9623°
orbit number at epoch: 66274

The dashed part of the orbit path shows where the satellite is in the earth's shadow,  

DLR